This is the latest recevied weather packets stored in our database for station/object DO2MIB-1. If no packets are shown the sender has not sent any weather packets the latest 10 day(s).
| Time | Temp. | Humidity | Pressure | Rain* | Wind** | Luminosity | Snow |
|---|---|---|---|---|---|---|---|
| 1778351782 | 25.56° C | 27% | 0 hPa | - | 0 m/s | - | - |
| 1778351451 | 23.89° C | 26% | 0 hPa | - | 0 m/s | - | - |
| 1778351285 | 26.11° C | 25% | 0 hPa | - | 0 m/s | - | - |
| 1778351136 | 25.56° C | 28% | 0 hPa | - | 0 m/s | - | - |
| 1778351037 | 23.33° C | 27% | 0 hPa | - | 0 m/s | - | - |
| 1778350772 | 23.33° C | 26% | 0 hPa | - | 0 m/s | - | - |
| 1778350722 | 25.56° C | 27% | 0 hPa | - | 0 m/s | - | - |
| 1778350374 | 26.11° C | 26% | 0 hPa | - | 0 m/s | - | - |
| 1778350225 | 26.11° C | 27% | 0 hPa | - | 0 m/s | - | - |
| 1778350159 | 25.56° C | 27% | 0 hPa | - | 0 m/s | - | - |
| 1778350093 | 23.33° C | 28% | 0 hPa | - | 0 m/s | - | - |
| 1778349977 | 23.89° C | 26% | 0 hPa | - | 0 m/s | - | - |
| 1778349960 | 26.11° C | 28% | 0 hPa | - | 0 m/s | - | - |
| 1778349778 | 25.56° C | 27% | 0 hPa | - | 0 m/s | - | - |
| 1778349662 | 26.11° C | 27% | 0 hPa | - | 0 m/s | - | - |
| 1778349629 | 25.56° C | 28% | 0 hPa | - | 0 m/s | - | - |
| 1778349364 | 25.56° C | 27% | 0 hPa | - | 0 m/s | - | - |
| 1778349298 | 22.78° C | 26% | 0 hPa | - | 0 m/s | - | - |
| 1778349248 | 25.56° C | 27% | 0 hPa | - | 0 m/s | - | - |
| 1778349049 | 26.11° C | 26% | 0 hPa | - | 0 m/s | - | - |
| 1778348867 | 25.56° C | 28% | 0 hPa | - | 0 m/s | - | - |
| 1778348784 | 26.11° C | 26% | 0 hPa | - | 0 m/s | - | - |
| 1778348635 | 26.11° C | 26% | 0 hPa | - | 0 m/s | - | - |
| 1778348536 | 23.33° C | 26% | 0 hPa | - | 0 m/s | - | - |
| 1778348370 | 25.56° C | 27% | 0 hPa | - | 0 m/s | - | - |
* Rain since midnight (hover to see other rain measurements)
** Current wind speed in m/s (hover to see current wind gust speed)